ISR335 LLBG-LICC

Flight info

Callsign ISR335
Flight time N/A
Altitude 38000
Route SUVAS L53 STEPA M1 KAVOS UM1 GUDIS DCT ROTAS DCT TISAL DCT VUSME
Aircraft A320/M-SDE3FGHIRWY/LB1

Departure

Time N/A
Airport Ben Gurion International Airport (LLBG)

Arrival

Time 2026-04-27 06:52
Airport Catania-Fontanarossa Airport (LICC)
Time Latitude Longitude Altitude Speed Heading
2026-04-27 04:35 32.90321 32.17724 21781 ft 339 kts 297°
2026-04-27 04:36 32.94340 32.07492 22316 ft 337 kts 297°
2026-04-27 04:36 32.98248 31.97554 22823 ft 335 kts 299°
2026-04-27 04:36 33.02175 31.87512 23373 ft 334 kts 298°
2026-04-27 04:36 33.06069 31.77500 23846 ft 332 kts 300°
2026-04-27 04:37 33.09940 31.67546 24306 ft 329 kts 300°
2026-04-27 04:37 33.13758 31.57657 24772 ft 327 kts 300°
2026-04-27 04:37 33.17543 31.47855 25226 ft 323 kts 301°
2026-04-27 04:37 33.21285 31.38139 25700 ft 321 kts 301°
2026-04-27 04:38 33.24984 31.28486 26194 ft 318 kts 301°
2026-04-27 04:38 33.28656 31.18923 26663 ft 315 kts 301°
2026-04-27 04:38 33.32277 31.09469 27183 ft 311 kts 301°
2026-04-27 04:38 33.35828 31.00114 27686 ft 307 kts 301°
2026-04-27 04:39 33.39334 30.90874 28193 ft 303 kts 301°
2026-04-27 04:39 33.42794 30.81757 28732 ft 299 kts 302°
2026-04-27 04:39 33.46197 30.72754 29282 ft 295 kts 302°
2026-04-27 04:39 33.49552 30.63852 29839 ft 290 kts 302°
2026-04-27 04:40 33.52836 30.55099 30338 ft 285 kts 302°
2026-04-27 04:40 33.56015 30.46613 30818 ft 279 kts 302°
2026-04-27 04:40 33.58003 30.41286 31121 ft 275 kts 302°
2026-04-27 04:40 33.58780 30.39204 31214 ft 273 kts 301°
2026-04-27 04:41 33.59580 30.37077 30980 ft 282 kts 301°
2026-04-27 04:41 33.60353 30.34996 31463 ft 265 kts 301°
2026-04-27 04:41 33.61130 30.32898 30981 ft 286 kts 301°
2026-04-27 04:41 33.61945 30.30720 31018 ft 286 kts 301°
2026-04-27 04:42 33.62772 30.28521 30932 ft 291 kts 301°
2026-04-27 04:42 33.63616 30.26289 30856 ft 296 kts 301°
2026-04-27 04:42 33.64477 30.24026 30791 ft 300 kts 301°
2026-04-27 04:42 33.65356 30.21729 30617 ft 308 kts 301°
2026-04-27 04:43 33.66271 30.19334 30323 ft 319 kts 300°
2026-04-27 04:43 33.67151 30.16925 30354 ft 319 kts 300°
2026-04-27 04:43 33.68027 30.14485 30475 ft 316 kts 300°
2026-04-27 04:43 33.68895 30.12081 30584 ft 313 kts 300°
2026-04-27 04:44 33.69763 30.09696 30690 ft 310 kts 300°
2026-04-27 04:44 33.70629 30.07329 30811 ft 307 kts 300°
2026-04-27 04:44 33.71491 30.04986 30923 ft 305 kts 300°
2026-04-27 04:44 33.72343 30.02672 31047 ft 302 kts 300°
2026-04-27 04:45 33.73192 30.00378 31167 ft 299 kts 300°
2026-04-27 04:45 33.74035 29.98107 31289 ft 296 kts 300°
2026-04-27 04:45 33.74868 29.95862 31410 ft 294 kts 300°
2026-04-27 04:45 33.75697 29.93626 31536 ft 291 kts 300°
2026-04-27 04:46 33.76515 29.91414 31657 ft 288 kts 300°
2026-04-27 04:46 33.77325 29.89225 31782 ft 285 kts 300°
2026-04-27 04:46 33.78125 29.87059 31909 ft 282 kts 300°
2026-04-27 04:46 33.78917 29.84918 32027 ft 279 kts 300°
2026-04-27 04:47 33.79702 29.82802 32172 ft 275 kts 300°
2026-04-27 04:47 33.80468 29.80736 32262 ft 272 kts 300°
2026-04-27 04:47 33.81074 29.79104 32353 ft 269 kts 300°
2026-04-27 04:47 33.81841 29.77038 32491 ft 273 kts 300°
2026-04-27 04:48 33.82621 29.74933 32626 ft 278 kts 300°
2026-04-27 04:48 33.83412 29.72787 32755 ft 283 kts 299°
2026-04-27 04:48 33.84217 29.70607 32921 ft 287 kts 299°
2026-04-27 04:48 33.85041 29.68381 32973 ft 296 kts 299°
2026-04-27 04:49 33.86766 29.63711 32981 ft 315 kts 299°
2026-04-27 04:49 33.87668 29.61264 32981 ft 326 kts 298°
2026-04-27 04:49 33.88601 29.58725 32981 ft 336 kts 298°
2026-04-27 04:50 33.90542 29.53415 32961 ft 357 kts 297°
2026-04-27 04:50 33.92242 29.48771 32983 ft 373 kts 297°
2026-04-27 04:51 33.94392 29.42892 32987 ft 394 kts 297°
2026-04-27 04:51 33.96647 29.36703 32985 ft 409 kts 297°
2026-04-27 04:52 33.98935 29.30382 33513 ft 411 kts 297°
2026-04-27 04:52 34.00078 29.27228 33996 ft 410 kts 297°
2026-04-27 04:52 34.01201 29.24127 34384 ft 409 kts 296°
2026-04-27 04:53 34.02338 29.20991 34765 ft 408 kts 296°
2026-04-27 04:53 34.03471 29.17864 35151 ft 406 kts 296°
2026-04-27 04:53 34.04598 29.14744 35518 ft 405 kts 295°
2026-04-27 04:53 34.05724 29.11633 35889 ft 404 kts 295°
2026-04-27 04:54 34.06850 29.08532 36259 ft 403 kts 295°
2026-04-27 04:54 34.07973 29.05440 36612 ft 402 kts 295°
2026-04-27 04:54 34.09090 29.02354 36946 ft 401 kts 294°
2026-04-27 04:54 34.10208 28.99268 37286 ft 400 kts 294°
2026-04-27 04:55 34.11317 28.96194 37620 ft 399 kts 294°
2026-04-27 04:55 34.12426 28.93119 37909 ft 399 kts 294°
2026-04-27 04:55 34.14616 28.87019 37978 ft 398 kts 293°
2026-04-27 04:56 34.16814 28.80879 37980 ft 398 kts 293°
2026-04-27 04:56 34.19006 28.74746 37991 ft 398 kts 293°
2026-04-27 04:57 34.21201 28.68596 37995 ft 398 kts 293°
2026-04-27 04:57 34.23396 28.62458 37989 ft 398 kts 293°
2026-04-27 04:58 34.25582 28.56312 37994 ft 398 kts 293°
2026-04-27 04:58 34.27765 28.50149 38003 ft 398 kts 293°
2026-04-27 04:59 34.29947 28.43992 38006 ft 398 kts 293°
2026-04-27 04:59 34.32115 28.37874 38015 ft 398 kts 293°
2026-04-27 05:00 34.34295 28.31706 38003 ft 399 kts 293°
2026-04-27 05:00 34.36476 28.25528 38007 ft 399 kts 293°
2026-04-27 05:01 34.38650 28.19336 38013 ft 400 kts 293°
2026-04-27 05:01 34.40825 28.13135 38018 ft 400 kts 293°
2026-04-27 05:02 34.43000 28.06933 38020 ft 400 kts 293°
2026-04-27 05:03 34.46255 27.97620 38013 ft 400 kts 293°
2026-04-27 05:03 34.48422 27.91405 38012 ft 400 kts 292°
2026-04-27 05:04 34.49060 27.89571 38013 ft 401 kts 292°
2026-04-27 05:05 34.49617 27.87970 38037 ft 400 kts 292°
2026-04-27 05:05 34.51785 27.81728 38016 ft 401 kts 292°
2026-04-27 05:06 34.53820 27.75436 38016 ft 401 kts 285°
2026-04-27 05:06 34.55260 27.68900 38021 ft 401 kts 285°
2026-04-27 05:07 34.56712 27.62348 38021 ft 401 kts 285°
2026-04-27 05:07 34.58155 27.55811 38026 ft 401 kts 285°
2026-04-27 05:08 34.59594 27.49264 38027 ft 402 kts 285°
2026-04-27 05:08 34.61024 27.42738 38036 ft 402 kts 285°
2026-04-27 05:09 34.62457 27.36175 38047 ft 402 kts 285°
2026-04-27 05:09 34.63888 27.29613 38051 ft 402 kts 285°
2026-04-27 05:10 34.65311 27.23042 38050 ft 402 kts 285°
2026-04-27 05:10 34.66734 27.16475 38052 ft 402 kts 285°
2026-04-27 05:11 34.68154 27.09900 38050 ft 402 kts 285°
2026-04-27 05:11 34.69573 27.03311 38050 ft 403 kts 285°
2026-04-27 05:12 34.70988 26.96733 38054 ft 403 kts 285°
2026-04-27 05:12 34.72392 26.90179 38056 ft 403 kts 285°
2026-04-27 05:13 34.73802 26.83582 38061 ft 403 kts 285°
2026-04-27 05:13 34.75208 26.76979 38062 ft 403 kts 285°
2026-04-27 05:14 34.76613 26.70370 38061 ft 404 kts 284°
2026-04-27 05:14 34.78010 26.63746 38063 ft 404 kts 284°
2026-04-27 05:15 34.79405 26.57116 38062 ft 404 kts 284°
2026-04-27 05:15 34.80792 26.50524 38067 ft 404 kts 284°
2026-04-27 05:16 34.82186 26.43892 38069 ft 404 kts 284°
2026-04-27 05:16 34.83579 26.37259 38070 ft 404 kts 284°
2026-04-27 05:17 34.84962 26.30638 38069 ft 404 kts 284°
2026-04-27 05:17 34.86331 26.24043 38076 ft 404 kts 284°
2026-04-27 05:18 34.87709 26.17404 38072 ft 404 kts 284°
2026-04-27 05:18 34.89087 26.10742 38073 ft 405 kts 284°
2026-04-27 05:19 34.90458 26.04090 38078 ft 405 kts 284°
2026-04-27 05:19 34.91830 25.97435 38074 ft 405 kts 284°
2026-04-27 05:20 34.93194 25.90770 38084 ft 405 kts 284°
2026-04-27 05:20 34.94541 25.84149 38081 ft 405 kts 284°
2026-04-27 05:21 34.95897 25.77483 38082 ft 405 kts 284°
2026-04-27 05:21 34.97257 25.70828 38081 ft 404 kts 284°
2026-04-27 05:22 34.98608 25.64161 38091 ft 404 kts 284°
2026-04-27 05:22 34.99954 25.57506 38092 ft 404 kts 284°
2026-04-27 05:23 35.01296 25.50852 38091 ft 403 kts 284°
2026-04-27 05:23 35.02623 25.44205 38093 ft 403 kts 284°
2026-04-27 05:24 35.03947 25.37600 38091 ft 403 kts 284°
2026-04-27 05:24 35.05277 25.30961 38085 ft 403 kts 284°
2026-04-27 05:25 35.06597 25.24315 38088 ft 403 kts 284°
2026-04-27 05:25 35.07910 25.17661 38082 ft 403 kts 284°
2026-04-27 05:26 35.09220 25.11001 38088 ft 403 kts 284°
2026-04-27 05:26 35.10536 25.04340 38090 ft 404 kts 284°
2026-04-27 05:26 35.11193 25.01008 38390 ft 404 kts 284°
2026-04-27 05:27 35.11860 24.97626 38193 ft 411 kts 285°
2026-04-27 05:27 35.12526 24.94223 38071 ft 414 kts 285°
2026-04-27 05:27 35.13196 24.90787 38083 ft 414 kts 285°
2026-04-27 05:28 35.14525 24.83962 38083 ft 417 kts 285°
2026-04-27 05:28 35.15875 24.77008 38083 ft 420 kts 284°
2026-04-27 05:29 35.17210 24.70117 38095 ft 419 kts 285°
2026-04-27 05:29 35.18554 24.63176 38105 ft 419 kts 284°
2026-04-27 05:30 35.19894 24.56234 38092 ft 420 kts 284°
2026-04-27 05:30 35.21231 24.49280 38093 ft 420 kts 284°
2026-04-27 05:31 35.22333 24.43501 38104 ft 419 kts 285°
2026-04-27 05:31 35.23662 24.36554 38088 ft 419 kts 284°
2026-04-27 05:32 35.25203 24.28455 38042 ft 422 kts 284°
2026-04-27 05:32 35.26314 24.22594 38039 ft 423 kts 284°
2026-04-27 05:33 35.27640 24.15564 38042 ft 425 kts 284°
2026-04-27 05:33 35.28957 24.08549 38049 ft 426 kts 284°
2026-04-27 05:34 35.30286 24.01481 38063 ft 426 kts 284°
2026-04-27 05:34 35.31608 23.94419 38082 ft 425 kts 285°
2026-04-27 05:35 35.32923 23.87363 38095 ft 425 kts 285°
2026-04-27 05:35 35.34235 23.80295 38112 ft 424 kts 285°
2026-04-27 05:36 35.35540 23.73251 38113 ft 424 kts 285°
2026-04-27 05:36 35.36838 23.66202 38094 ft 425 kts 285°
2026-04-27 05:37 35.38135 23.59129 38095 ft 426 kts 285°
2026-04-27 05:37 35.39424 23.52077 38098 ft 427 kts 285°
2026-04-27 05:38 35.40721 23.44973 38107 ft 427 kts 285°
2026-04-27 05:38 35.42026 23.37862 38102 ft 428 kts 285°
2026-04-27 05:39 35.43324 23.30733 38117 ft 428 kts 285°
2026-04-27 05:39 35.44605 23.23593 38124 ft 428 kts 285°
2026-04-27 05:40 35.45887 23.16459 38122 ft 428 kts 285°
2026-04-27 05:40 35.47163 23.09321 38115 ft 428 kts 285°
2026-04-27 05:41 35.48425 23.02221 38114 ft 428 kts 285°
2026-04-27 05:41 35.49698 22.95081 38118 ft 428 kts 285°
2026-04-27 05:42 35.50968 22.87949 37992 ft 429 kts 284°
2026-04-27 05:42 35.51596 22.84398 38103 ft 420 kts 283°
2026-04-27 05:42 35.52209 22.80929 38102 ft 413 kts 283°
2026-04-27 05:43 35.53420 22.74075 38101 ft 409 kts 283°
2026-04-27 05:43 35.54617 22.67246 38092 ft 408 kts 283°
2026-04-27 05:44 35.55805 22.60433 38097 ft 408 kts 283°
2026-04-27 05:44 35.56989 22.53624 38102 ft 408 kts 283°
2026-04-27 05:45 35.58162 22.46858 38112 ft 408 kts 283°
2026-04-27 05:45 35.59347 22.40027 38115 ft 408 kts 283°
2026-04-27 05:46 35.60524 22.33210 38120 ft 407 kts 283°
2026-04-27 05:46 35.61690 22.26438 38127 ft 407 kts 283°
2026-04-27 05:47 35.62853 22.19627 38125 ft 406 kts 283°
2026-04-27 05:47 35.64015 22.12812 38125 ft 406 kts 283°
2026-04-27 05:48 35.65165 22.06049 38134 ft 406 kts 283°
2026-04-27 05:48 35.66310 21.99260 38138 ft 405 kts 283°
2026-04-27 05:49 35.67457 21.92467 38137 ft 405 kts 283°
2026-04-27 05:49 35.68598 21.85684 38140 ft 405 kts 283°
2026-04-27 05:50 35.69729 21.78932 38136 ft 405 kts 283°
2026-04-27 05:50 35.70865 21.72168 38146 ft 404 kts 283°
2026-04-27 05:51 35.71993 21.65408 38145 ft 403 kts 282°
2026-04-27 05:51 35.73113 21.58658 38147 ft 402 kts 282°
2026-04-27 05:52 35.74217 21.51944 38152 ft 402 kts 282°
2026-04-27 05:52 35.75316 21.45207 38152 ft 401 kts 282°
2026-04-27 05:53 35.76419 21.38466 38147 ft 401 kts 282°
2026-04-27 05:53 35.77519 21.31731 38148 ft 400 kts 282°
2026-04-27 05:54 35.78607 21.25006 38151 ft 400 kts 282°
2026-04-27 05:54 35.79696 21.18335 38153 ft 400 kts 282°
2026-04-27 05:55 35.80783 21.11621 38156 ft 399 kts 282°
2026-04-27 05:55 35.81863 21.04908 38147 ft 398 kts 282°
2026-04-27 05:56 35.82933 20.98226 38164 ft 397 kts 282°
2026-04-27 05:56 35.83993 20.91566 38162 ft 395 kts 282°
2026-04-27 05:57 35.85053 20.84925 38154 ft 394 kts 282°
2026-04-27 05:57 35.86101 20.78295 38155 ft 394 kts 282°
2026-04-27 05:58 35.87151 20.71677 38162 ft 393 kts 282°
2026-04-27 05:58 35.88185 20.65104 38171 ft 392 kts 282°
2026-04-27 05:59 35.89215 20.58496 38163 ft 392 kts 282°
2026-04-27 05:59 35.90252 20.51881 38160 ft 392 kts 282°
2026-04-27 06:00 35.91784 20.42026 38175 ft 391 kts 281°
2026-04-27 06:00 35.92795 20.35444 38177 ft 390 kts 281°
2026-04-27 06:01 35.93801 20.28875 38177 ft 389 kts 281°
2026-04-27 06:01 35.94858 20.22323 38161 ft 389 kts 286°
2026-04-27 06:02 35.96382 20.15920 38172 ft 389 kts 286°
2026-04-27 06:02 35.97904 20.09507 38173 ft 389 kts 286°
2026-04-27 06:03 35.99402 20.03123 38177 ft 389 kts 286°
2026-04-27 06:03 36.00910 19.96693 38164 ft 389 kts 286°
2026-04-27 06:04 36.02415 19.90270 38178 ft 389 kts 286°
2026-04-27 06:04 36.03906 19.83881 38179 ft 389 kts 286°
2026-04-27 06:05 36.05408 19.77449 38170 ft 390 kts 286°
2026-04-27 06:05 36.06899 19.71006 38172 ft 390 kts 285°
2026-04-27 06:06 36.08384 19.64548 38175 ft 390 kts 286°
2026-04-27 06:06 36.09883 19.58088 38177 ft 390 kts 286°
2026-04-27 06:07 36.11376 19.51626 38176 ft 390 kts 285°
2026-04-27 06:07 36.12850 19.45202 38175 ft 390 kts 285°
2026-04-27 06:08 36.14334 19.38740 38171 ft 390 kts 285°
2026-04-27 06:08 36.15811 19.32259 38168 ft 390 kts 285°
2026-04-27 06:09 36.17285 19.25792 38179 ft 390 kts 285°
2026-04-27 06:09 36.18746 19.19358 38177 ft 390 kts 285°
2026-04-27 06:10 36.20212 19.12883 38167 ft 391 kts 285°
2026-04-27 06:10 36.21672 19.06403 38183 ft 391 kts 285°
2026-04-27 06:11 36.23133 18.99907 38174 ft 391 kts 285°
2026-04-27 06:11 36.24595 18.93413 38183 ft 391 kts 285°
2026-04-27 06:12 36.26055 18.86909 38176 ft 391 kts 285°
2026-04-27 06:12 36.27503 18.80449 38183 ft 391 kts 285°
2026-04-27 06:13 36.28960 18.73923 38193 ft 392 kts 284°
2026-04-27 06:13 36.30398 18.67409 38196 ft 392 kts 284°
2026-04-27 06:14 36.31834 18.60894 38186 ft 392 kts 284°
2026-04-27 06:14 36.33030 18.55479 38183 ft 392 kts 284°
2026-04-27 06:15 36.34468 18.48974 38180 ft 391 kts 284°
2026-04-27 06:15 36.35902 18.42456 38190 ft 391 kts 284°
2026-04-27 06:16 36.37327 18.35941 38176 ft 391 kts 284°
2026-04-27 06:16 36.38756 18.29422 38173 ft 391 kts 284°
2026-04-27 06:17 36.40175 18.22888 38184 ft 392 kts 284°
2026-04-27 06:17 36.41597 18.16357 38182 ft 392 kts 284°
2026-04-27 06:18 36.43015 18.09820 38176 ft 392 kts 284°
2026-04-27 06:18 36.44427 18.03276 38191 ft 392 kts 284°
2026-04-27 06:19 36.45832 17.96767 38192 ft 392 kts 284°
2026-04-27 06:19 36.47239 17.90210 38188 ft 392 kts 284°
2026-04-27 06:20 36.48645 17.83662 38186 ft 392 kts 284°
2026-04-27 06:20 36.50136 17.77146 38180 ft 393 kts 290°
2026-04-27 06:21 36.51294 17.74066 37994 ft 395 kts 294°
2026-04-27 06:21 36.52528 17.70983 37245 ft 399 kts 294°
2026-04-27 06:21 36.53755 17.67913 36912 ft 393 kts 294°
2026-04-27 06:21 36.54962 17.64888 36522 ft 389 kts 295°
2026-04-27 06:22 36.56141 17.61923 36123 ft 385 kts 295°
2026-04-27 06:22 36.57319 17.58956 35740 ft 382 kts 295°
2026-04-27 06:22 36.58491 17.56002 35335 ft 378 kts 295°
2026-04-27 06:22 36.59650 17.53078 34913 ft 375 kts 295°
2026-04-27 06:23 36.60800 17.50181 34523 ft 372 kts 295°
2026-04-27 06:23 36.61937 17.47311 34113 ft 369 kts 295°
2026-04-27 06:23 36.63066 17.44455 33668 ft 366 kts 295°
2026-04-27 06:23 36.64187 17.41621 33272 ft 362 kts 295°
2026-04-27 06:24 36.65293 17.38822 32852 ft 358 kts 295°
2026-04-27 06:24 36.66385 17.36055 32467 ft 355 kts 295°
2026-04-27 06:24 36.67472 17.33298 32088 ft 352 kts 295°
2026-04-27 06:24 36.68553 17.30560 31689 ft 350 kts 295°
2026-04-27 06:25 36.69623 17.27847 31312 ft 347 kts 294°
2026-04-27 06:25 36.70682 17.25154 30934 ft 345 kts 294°
2026-04-27 06:25 36.71724 17.22510 30583 ft 343 kts 294°
2026-04-27 06:25 36.72769 17.19849 30220 ft 341 kts 294°
2026-04-27 06:26 36.73808 17.17201 29834 ft 338 kts 294°
2026-04-27 06:26 36.74831 17.14585 29491 ft 333 kts 294°
2026-04-27 06:26 36.75839 17.12009 29148 ft 329 kts 294°
2026-04-27 06:26 36.76839 17.09457 28831 ft 325 kts 294°
2026-04-27 06:27 36.77822 17.06944 28509 ft 320 kts 294°
2026-04-27 06:27 36.78792 17.04465 28195 ft 316 kts 294°
2026-04-27 06:27 36.79755 17.02005 27869 ft 315 kts 294°
2026-04-27 06:27 36.80712 16.99547 27554 ft 314 kts 294°
2026-04-27 06:28 36.81650 16.97133 27225 ft 313 kts 294°
2026-04-27 06:28 36.82598 16.94695 26901 ft 311 kts 294°
2026-04-27 06:28 36.83541 16.92269 26570 ft 310 kts 294°
2026-04-27 06:28 36.84479 16.89853 26231 ft 308 kts 294°
2026-04-27 06:29 36.85411 16.87448 25891 ft 307 kts 294°
2026-04-27 06:29 36.86341 16.85055 25553 ft 306 kts 295°
2026-04-27 06:29 36.87267 16.82673 25206 ft 304 kts 295°
2026-04-27 06:29 36.88192 16.80294 24858 ft 303 kts 295°
2026-04-27 06:30 36.89108 16.77928 24500 ft 302 kts 295°
2026-04-27 06:30 36.90022 16.75565 24157 ft 301 kts 295°
2026-04-27 06:30 36.90932 16.73213 23797 ft 300 kts 295°
2026-04-27 06:30 36.91840 16.70866 23402 ft 299 kts 295°
2026-04-27 06:31 36.92742 16.68531 23044 ft 297 kts 295°
2026-04-27 06:31 36.93639 16.66208 22696 ft 296 kts 295°
2026-04-27 06:31 36.94533 16.63894 22337 ft 295 kts 295°
2026-04-27 06:31 36.95426 16.61589 21988 ft 294 kts 295°
2026-04-27 06:32 36.96304 16.59315 21642 ft 293 kts 295°
2026-04-27 06:32 36.97190 16.57020 21292 ft 293 kts 295°
2026-04-27 06:32 36.98074 16.54725 20938 ft 292 kts 295°
2026-04-27 06:32 36.98955 16.52438 20593 ft 292 kts 295°
2026-04-27 06:33 36.99833 16.50159 20246 ft 291 kts 295°
2026-04-27 06:33 37.00816 16.47966 20085 ft 287 kts 303°
2026-04-27 06:33 37.01943 16.45879 20013 ft 290 kts 303°
2026-04-27 06:33 37.03079 16.43793 19956 ft 290 kts 303°
2026-04-27 06:34 37.04218 16.41704 19897 ft 291 kts 303°
2026-04-27 06:34 37.05364 16.39611 19834 ft 292 kts 303°
2026-04-27 06:34 37.06512 16.37516 19772 ft 292 kts 303°
2026-04-27 06:34 37.07659 16.35421 19711 ft 292 kts 303°
2026-04-27 06:35 37.08807 16.33324 19647 ft 292 kts 304°
2026-04-27 06:35 37.09954 16.31223 19590 ft 292 kts 303°
2026-04-27 06:35 37.11100 16.29119 19506 ft 293 kts 303°
2026-04-27 06:35 37.12244 16.27011 19232 ft 292 kts 303°
2026-04-27 06:36 37.13372 16.24931 18898 ft 292 kts 303°
2026-04-27 06:36 37.14527 16.22797 18537 ft 293 kts 304°
2026-04-27 06:36 37.15674 16.20680 18150 ft 294 kts 304°
2026-04-27 06:36 37.16806 16.18591 17788 ft 293 kts 304°
2026-04-27 06:37 37.17953 16.16471 17426 ft 293 kts 304°
2026-04-27 06:37 37.19096 16.14362 17083 ft 292 kts 304°
2026-04-27 06:37 37.20239 16.12258 16724 ft 292 kts 304°
2026-04-27 06:37 37.21379 16.10157 16367 ft 291 kts 304°
2026-04-27 06:38 37.22516 16.08057 16030 ft 291 kts 304°
2026-04-27 06:38 37.23651 16.05957 15672 ft 290 kts 304°
2026-04-27 06:38 37.24783 16.03858 15317 ft 290 kts 304°
2026-04-27 06:38 37.25915 16.01760 14970 ft 290 kts 304°
2026-04-27 06:39 37.27047 15.99662 14622 ft 290 kts 304°
2026-04-27 06:39 37.28185 15.97552 14265 ft 293 kts 304°
2026-04-27 06:39 37.29330 15.95431 13903 ft 293 kts 304°
2026-04-27 06:39 37.30471 15.93314 13522 ft 292 kts 304°
2026-04-27 06:40 37.31607 15.91201 13160 ft 291 kts 304°
2026-04-27 06:40 37.32736 15.89098 12804 ft 291 kts 304°
2026-04-27 06:40 37.33867 15.86997 12446 ft 290 kts 304°
2026-04-27 06:40 37.34997 15.84896 12092 ft 289 kts 304°
2026-04-27 06:41 37.36122 15.82805 11738 ft 288 kts 304°
2026-04-27 06:41 37.37242 15.80717 11382 ft 288 kts 304°
2026-04-27 06:41 37.38359 15.78630 11026 ft 287 kts 304°
2026-04-27 06:41 37.39472 15.76548 10713 ft 285 kts 304°
2026-04-27 06:42 37.40562 15.74514 10578 ft 277 kts 303°
2026-04-27 06:42 37.41629 15.72520 10317 ft 274 kts 304°
2026-04-27 06:42 37.42690 15.70534 10009 ft 273 kts 303°
2026-04-27 06:42 37.43747 15.68555 9705 ft 271 kts 303°
2026-04-27 06:43 37.44778 15.66621 9389 ft 264 kts 303°
2026-04-27 06:43 37.45770 15.64767 9258 ft 247 kts 303°
2026-04-27 06:43 37.46706 15.63020 8991 ft 236 kts 303°
2026-04-27 06:43 37.47617 15.61311 8534 ft 234 kts 303°
2026-04-27 06:44 37.48525 15.59609 8064 ft 234 kts 303°
2026-04-27 06:44 37.49426 15.57916 7704 ft 231 kts 303°
2026-04-27 06:44 37.50325 15.56226 7574 ft 234 kts 303°
2026-04-27 06:44 37.51233 15.54520 7397 ft 234 kts 303°
2026-04-27 06:45 37.52095 15.52795 7221 ft 232 kts 295°
2026-04-27 06:45 37.52527 15.50838 7065 ft 234 kts 275°
2026-04-27 06:45 37.52400 15.48788 6703 ft 237 kts 259°
2026-04-27 06:45 37.52103 15.46766 6367 ft 238 kts 259°
2026-04-27 06:46 37.51807 15.44681 6016 ft 240 kts 259°
2026-04-27 06:46 37.51521 15.42636 5687 ft 240 kts 260°
2026-04-27 06:46 37.51233 15.40559 5351 ft 240 kts 259°
2026-04-27 06:46 37.50855 15.38520 5018 ft 240 kts 250°
2026-04-27 06:47 37.50290 15.36545 4684 ft 240 kts 250°
2026-04-27 06:47 37.49729 15.34578 4330 ft 236 kts 250°
2026-04-27 06:47 37.49186 15.32671 4025 ft 227 kts 250°
2026-04-27 06:47 37.48701 15.30826 3718 ft 218 kts 259°
2026-04-27 06:48 37.48541 15.28989 3454 ft 203 kts 264°
2026-04-27 06:48 37.48404 15.27273 3168 ft 194 kts 264°
2026-04-27 06:48 37.48266 15.25601 2902 ft 186 kts 264°
2026-04-27 06:48 37.48136 15.24046 2646 ft 174 kts 264°
2026-04-27 06:49 37.48013 15.22574 2409 ft 169 kts 264°
2026-04-27 06:49 37.47891 15.21111 2178 ft 167 kts 264°
2026-04-27 06:49 37.47776 15.19735 1966 ft 149 kts 264°
2026-04-27 06:49 37.47673 15.18483 1748 ft 140 kts 264°
2026-04-27 06:50 37.47572 15.17277 1562 ft 137 kts 264°
2026-04-27 06:50 37.47473 15.16085 1373 ft 136 kts 264°
2026-04-27 06:50 37.47374 15.14911 1194 ft 134 kts 264°
2026-04-27 06:50 37.47278 15.13750 1012 ft 133 kts 264°
2026-04-27 06:51 37.47184 15.12600 827 ft 131 kts 264°
2026-04-27 06:51 37.47098 15.11462 647 ft 130 kts 263°
2026-04-27 06:51 37.46993 15.10331 461 ft 130 kts 263°
2026-04-27 06:51 37.46895 15.09210 312 ft 128 kts 263°
2026-04-27 06:52 37.46798 15.08088 133 ft 130 kts 264°
2026-04-27 06:52 37.46708 15.07045 52 ft 106 kts 263°
2026-04-27 06:52 37.46654 15.06342 52 ft 56 kts 264°
2026-04-27 06:52 37.46624 15.05994 51 ft 34 kts 264°
2026-04-27 06:53 37.46598 15.05694 50 ft 35 kts 263°
2026-04-27 06:53 37.46601 15.05502 51 ft 17 kts 303°
2026-04-27 06:53 37.46713 15.05476 51 ft 19 kts 27°
2026-04-27 06:53 37.46757 15.05605 51 ft 18 kts 84°
2026-04-27 06:54 37.46771 15.05774 51 ft 21 kts 84°
2026-04-27 06:54 37.46787 15.05974 51 ft 25 kts 84°
2026-04-27 06:54 37.46807 15.06202 51 ft 28 kts 83°
2026-04-27 06:54 37.46818 15.06335 51 ft 14 kts 84°
2026-04-27 06:55 37.46829 15.06467 51 ft 14 kts 83°
2026-04-27 06:55 37.46875 15.06497 49 ft 10 kts
2026-04-27 06:55 37.46945 15.06526 51 ft 3 kts 18°
2026-04-27 06:55 37.46946 15.06527 51 ft 0 kts 18°